Miscellaneous Local Product
Issued by NWS Hastings, NE

Home | Current Version | Previous Version | Graphics & Text | Print | Product List | Glossary On
Versions: 1 2 3 4 5 6 7 8 9 10 11 12 13 14 15 16 17 18 19 20 21 22 23 24 25 26 27 28 29 30 31 32 33 34 35 36 37 38 39 40 41 42 43 44 45 46 47 48 49 50
000
AXUS43 KGID 310502
MISGRI

GID CWA HOURLY WEATHER ROUNDUP
NATIONAL WEATHER SERVICE HASTINGS NE
1100 PM CST FRI JAN 30 2015

NOTE: "FAIR" INDICATES FEW OR NO CLOUDS BELOW 12,000 FEET WITH NO
SIGNIFICANT WEATHER AND/OR OBSTRUCTIONS TO VISIBILITY.

...SOUTH CENTRAL NEBRASKA...

CITY           SKY/WX    TMP DP  RH WIND       PRES   REMARKS
GRAND ISLAND   CLOUDY    40  32  73 SW21      30.22S WCI  30
HASTINGS       CLOUDY    37  32  82 SW10      30.23S WCI  30
KEARNEY        CLOUDY    36  30  80 S14       30.22S WCI  27
ORD            CLOUDY    41  30  65 S14       30.16F
YORK           CLOUDY    37  27  65 S7        30.24S WCI  32
AURORA         CLOUDY    40  33  74 SW20G26   30.22S WCI  31
LEXINGTON      CLOUDY    38  33  81 S12       30.19S WCI  31
HOLDREGE       CLOUDY    35  33  92 S9        30.20F WCI  27
HEBRON         LGT RAIN  38  32  80 SW13      30.27S WCI  30

...NEBRASKA PANHANDLE...

CITY           SKY/WX    TMP DP  RH WIND       PRES   REMARKS
CHADRON        CLOUDY    28  24  85 W5        30.10F WCI  23
ALLIANCE       CLOUDY    31  26  82 CALM      30.06F
SCOTTSBLUFF    CLOUDY    36  27  69 NW6       30.07F WCI  31
SIDNEY         CLOUDY    33  26  75 NW6       30.06S WCI  28

...WESTERN AND NORTH CENTRAL NEBRASKA...

CITY           SKY/WX    TMP DP  RH WIND       PRES   REMARKS
VALENTINE      CLOUDY    31  26  82 CALM      30.10F
AINSWORTH      CLOUDY    36  27  72 SW8       30.11F WCI  29
ONEILL         CLOUDY    34  28  77 S6        30.14F WCI  29
BROKEN BOW     CLOUDY    39  31  72 S10       30.15F WCI  32
IMPERIAL       CLOUDY    37  31  78 S9        30.10S WCI  30
NORTH PLATTE   CLOUDY    38  32  79 S12       30.13S WCI  30
MCCOOK         CLOUDY    36  34  92 S7        30.16F WCI  30

...EASTERN NEBRASKA...

CITY           SKY/WX    TMP DP  RH WIND       PRES   REMARKS
NORFOLK        CLOUDY    37  27  67 SW9       30.17F WCI  30
SO SIOUX CITY  PTCLDY    28  24  85 SE9       30.20F WCI  19
TEKAMAH        CLOUDY    35  26  69 S13       30.22F WCI  26
COLUMBUS       CLOUDY    37  25  60 SW8       30.22S WCI  31
ALBION         CLOUDY    35  26  71 SE5       30.18F WCI  31
OMAHA EPPLEY   CLOUDY    32  25  75 S8        30.26F WCI  25
OFFUTT AFB     CLOUDY    35  25  68 S8        30.26F WCI  28
MILLARD        CLOUDY    37  26  67 S7        30.26F WCI  31
LINCOLN        CLOUDY    37  26  64 S9        30.27F WCI  30
NEBRASKA CITY  CLOUDY    32  22  67 S12       30.28F WCI  23
BEATRICE       CLOUDY    37  26  65 S9        30.28S WCI  31
FALLS CITY     CLOUDY    32  22  66 SE6       30.31F WCI  26

...NORTHERN KANSAS...

CITY           SKY/WX    TMP DP  RH WIND       PRES   REMARKS
GOODLAND       CLOUDY    33  32  96 S15       30.09F WCI  23
HILL CITY      MIX PCPN  34  33  96 S6        30.21F FOG     WCI  29
NORTON         CLOUDY    34  30  86 S8        30.19S WCI  27
PHILLIPSBURG   RAIN      37  37 100 SE5       30.24F WCI  34
SMITH CENTER   RAIN      32  32 100 S9        30.27S WCI  24
BELOIT         CLOUDY    36  34  93 S6        30.28F WCI  31
HAYS           CLOUDY    36  28  75 S10       30.23F WCI  28
RUSSELL        LGT RAIN  34  33  96 S7        30.23F WCI  28
CONCORDIA      LGT RAIN  35  35 100 S9        30.29S FOG     WCI  28
SALINA         LGT RAIN  37  32  82 S6        30.31F WCI  32
TOPEKA         CLOUDY    39  24  55 CALM      30.33F



USA.gov is the U.S. government's official web portal to all federal, state and local government web resources and services.